Cloud_Cover
0 0 0 0 0 0 1 19 100 100 47 100 100 100 100 100 100 100 100 100 100 100 100 100 100 100 67 19 5 5 5 5 21 100 41 11 15 5 3 2 4 5 6 5 5 5 5 5 7
0 0 0 0 0 0 0 3 100 66 5 100 100 100 100 100 100 100 100 100 100 100 100 100 100 100 100 100 100 20 5 19 17 6 80 94 14 5 7 2 5 3 4 4 2 4 5 5 15
0 0 0 0 0 0 1 0 13 97 8 58 100 100 100 100 100 93 100 100 100 100 100 100 100 100 100 100 100 100 100 57 84 100 15 14 75 82 5 78 39 5 5 5 4 4 0 0 4
0 0 1 5 0 0 0 1 5 100 23 5 100 100 100 100 100 100 100 100 100 100 100 100 99 100 100 100 100 100 100 100 85 27 2 5 4 5 5 5 0 0 0 0 3 3 3 5 2
0 0 2 5 5 4 0 0 0 59 97 15 44 100 100 100 100 81 47 100 100 100 98 79 96 15 7 86 94 100 62 45 18 4 56 4 4 5 5 4 5 2 1 0 4 0 0 0 0
0 0 0 5 4 5 5 3 5 5 85 100 77 71 37 100 16 28 5 10 6 84 38 40 97 96 57 92 54 41 44 5 5 5 5 5 3 3 0 0 0 6 73 5 5 5 4 5 2
0 0 0 3 5 5 5 3 1 3 2 6 100 87 16 16 26 1 9 10 79 62 77 87 83 64 93 84 30 6 8 16 34 73 67 5 5 7 5 6 2 4 5 90 84 5 3 28 61
1 0 0 0 4 5 15 4 0 0 0 0 1 90 100 97 4 0 0 8 5 100 100 50 48 94 99 81 60 24 5 7 31 66 25 64 94 64 44 91 86 11 6 5 24 80 9 4 25
0 0 0 0 0 5 5 1 0 0 0 0 0 0 1 6 40 0 0 0 7 34 77 100 97 24 52 75 21 72 40 12 5 34 94 99 100 90 79 91 61 32 73 98 6 31 96 45 5
0 0 0 0 0 4 0 0 0 0 0 0 0 0 31 64 1 1 28 42 18 42 23 7 100 100 100 100 100 94 27 55 36 58 27 30 48 27 11 23 88 98 90 50 100 100 69 15 83
0 0 0 0 0 0 0 0 0 0 0 0 0 7 100 12 18 51 100 100 100 100 77 41 42 73 22 73 35 100 100 83 58 60 98 57 47 31 62 7 69 57 99 83 93 43 31 95 73
0 0 0 0 0 0 0 0 0 0 0 0 0 29 100 100 100 100 100 99 100 96 54 53 44 60 54 100 94 18 66 95 60 34 100 87 100 70 6 14 7 44 100 94 97 54 100 100 100
0 0 0 0 0 0 0 0 0 0 2 0 2 32 97 100 100 78 96 96 30 82 70 18 8 68 50 32 68 57 29 50 50 99 97 100 99 78 82 45 12 100 73 99 92 76 94 99 100
0 0 0 0 0 0 0 0 0 78 13 2 1 67 100 84 64 51 6 16 0 32 98 93 17 31 4 12 12 30 21 30 32 50 89 98 50 58 98 69 67 73 84 94 83 75 100 96 64
0 0 0 0 0 0 0 8 90 95 11 14 0 21 21 57 19 15 19 8 16 9 7 54 83 97 56 62 70 62 35 0 0 85 99 99 84 89 99 100 98 94 100 82 100 93 100 100 97
0 0 0 0 0 0 0 24 100 94 24 15 0 0 0 0 0 12 39 34 12 5 1 52 95 97 58 75 100 100 98 23 0 0 88 81 9 5 5 2 20 53 49 41 78 30 98 100 100
0 0 0 0 0 0 0 38 100 86 48 14 1 0 0 0 5 2 5 2 1 5 3 4 74 100 100 100 98 89 85 44 3 3 3 1 0 0 5 5 4 2 2 3 3 3 17 80 100
0 0 0 0 0 0 0 47 99 62 0 0 0 0 37 47 5 5 5 3 5 5 4 0 4 62 100 100 100 100 100 100 100 8 0 0 1 31 4 0 0 0 2 9 47 6 5 38 78
0 0 0 0 0 4 3 97 100 54 0 0 0 2 28 69 100 5 5 5 14 5 37 5 2 0 0 10 30 18 67 28 1 0 0 0 0 0 0 0 0 5 5 0 0 5 4 5 1
0 0 0 0 0 7 100 100 100 44 0 0 0 0 0 15 24 75 48 5 7 6 18 12 5 0 0 0 0 0 0 0 0 0 0 0 0 0 4 5 5 5 2 0 0 0 0 0 2
0 0 0 0 0 27 40 95 100 58 7 0 0 0 0 14 1 5 92 5 12 96 99 87 5 0 0 0 0 0 0 0 0 0 0 1 2 5 5 7 0 0 0 0 2 0 8 40 2
0 0 0 0 0 18 0 4 47 64 18 0 0 4 0 0 0 2 34 78 82 48 100 51 59 5 3 0 0 0 0 0 2 2 5 5 5 6 2 0 0 0 0 0 10 31 44 56 51
0 0 0 0 0 0 0 0 0 0 5 0 5 5 5 0 0 54 20 5 0 8 4 0 4 3 0 0 0 0 0 0 0 3 1 0 0 0 0 0 0 0 0 0 12 49 84 60 79
0 0 0 0 0 0 0 0 0 30 0 0 0 1 0 0 17 38 14 4 5 5 0 0 0 0 0 0 0 0 0 0 0 0 0 0 0 0 0 0 0 0 0 0 0 17 44 78 100
0 0 0 0 0 0 0 0 0 0 0 0 0 0 0 0 0 3 0 5 5 0 0 0 0 0 0 0 0 0 0 0 0 0 7 20 34 11 0 1 1 2 0 0 13 100 99 93 100
0 0 0 0 0 0 0 0 0 0 0 0 0 0 0 0 0 0 5 4 0 0 0 0 0 0 0 0 0 0 0 8 1 8 18 34 48 47 8 4 5 5 5 5 6 14 14 5 8
0 0 0 0 0 0 0 0 0 0 0 0 0 0 0 0 0 2 1 5 4 0 2 5 4 0 0 0 0 0 0 4 13 16 10 28 23 39 1 0 5 6 18 6 5 5 5 5 5
0 0 0 0 0 0 0 0 0 0 0 0 0 0 0 0 0 0 4 13 5 5 5 5 2 0 0 0 0 0 4 5 5 8 82 100 100 100 46 1 17 22 5 3 3 5 4 4 3
0 0 0 0 0 0 0 0 0 0 0 0 0 0 0 0 0 9 100 64 5 5 5 5 3 4 5 0 0 3 5 5 5 89 100 99 92 71 6 5 4 4 3 5 2 0 0 0 0
0 5 2 0 0 0 0 0 0 0 0 0 0 0 0 0 0 61 71 6 5 1 5 5 17 5 0 1 5 8 96 44 5 29 23 5 5 0 0 0 0 0 0 0 0 0 0 0 0